Home   Weather   Kerman   Past weeks

Flag for Iran Past Weather in Kerman, Iran — Yesterday and Last 2 Weeks

Now
70 °F

Sunny.


Feels Like: 70 °F
Forecast: 62 / 93 °F
Wind: 5 mph from Southeast

Location: Kerman Airport

Current Time: May 24, 2017 at 8:34:06 am

Latest Report: May 24, 2017 at 8:00 am


Visibility: 10 mi

Pressure: 30.15 "Hg (24.57 "Hg at 1762m altitude)

Humidity: 29%

Dew Point: 36 °F

Location of KermanLocation

Past Weather in Kerman — Graph

°F

Kerman Temperature Yesterday

Maximum temperature yesterday: 95 °F (at 3:30 pm)
Minimum temperature yesterday: 61 °F (at 3:30 am)
Average temperature yesterday: 81 °F

High & Low Weather Summary for the Past Weeks

 TemperatureHumidityPressure
High95 °F (May 17, 5:30 pm)94% (May 15, 1:30 am)30.24 "Hg (May 15, 1:30 am)
Low48 °F (May 15, 6:30 am)1% (May 23, 7:30 pm)29.86 "Hg (May 21, 3:30 pm)
Average75 °F24%30.07 "Hg
* Reported May 9 6:30 am — May 24 6:30 am, Kerman. Weather by CustomWeather, © 2017

Note: Actual official high and low records may vary slightly from our data, if they occured in-between our weather recording intervals... More about our weather records

Advertising

Kerman Weather History for the Previous 24 Hours

Scroll right to see more
 ConditionsComfort  
Time TempWeatherWind HumidityBarometerVisibility
6:30 am
Wed, May 24
64 °FSunny.5 mph26%30.15 "Hg10 mi
5:30 am59 °FClear.5 mph29%30.12 "Hg10 mi
4:30 am61 °FClear.7 mph27%30.09 "Hg10 mi
3:30 am64 °FClear.5 mph21%30.09 "Hg10 mi
2:30 am68 °FClear.5 mph12%30.09 "Hg10 mi
1:30 am68 °FClear.5 mph10%30.09 "Hg10 mi
12:30 am68 °FClear.5 mph10%30.09 "Hg10 mi
11:30 pm
Tue, May 23
73 °FClear.7 mph8%30.12 "Hg10 mi
10:30 pm73 °FClear.7 mph7%30.12 "Hg10 mi
9:30 pm82 °FPassing clouds.5 mph4%30.09 "HgN/A
8:30 pm84 °FPassing clouds.9 mph3%30.07 "HgN/A
7:30 pm88 °FPassing clouds.7 mph1%30.04 "HgN/A
6:30 pm93 °FPassing clouds.9 mph4%30.01 "HgN/A
5:30 pm95 °FPassing clouds.14 mph4%30.01 "HgN/A
4:30 pm95 °FPassing clouds.9 mph4%30.04 "HgN/A
3:30 pm95 °FPassing clouds.12 mph4%30.04 "HgN/A
2:30 pm93 °FPassing clouds.9 mph11%30.07 "HgN/A
1:30 pm91 °FPassing clouds.9 mph4%30.09 "HgN/A
12:30 pm90 °FPassing clouds.5 mph4%30.12 "HgN/A
12:00 pm88 °FSunny.7 mph4%30.12 "Hg10 mi
11:30 am90 °FSunny.9 mph5%30.12 "Hg10 mi
11:00 am88 °FSunny.5 mph5%30.12 "Hg10 mi
10:30 am88 °FClear.5 mph10%30.15 "Hg4 mi
10:00 am86 °FClear.5 mph11%30.15 "Hg4 mi
9:30 am84 °FClear.5 mph12%30.15 "Hg4 mi
9:00 am82 °FClear.5 mph14%30.15 "Hg4 mi
8:30 am81 °FSunny.7 mph15%30.12 "Hg10 mi
Weather by CustomWeather, © 2017

See weather overviewHow to use our weather pages